Find Starlink 34049

NORAD ID: 64042 Int'l Des: 2025-102 Owner: SPXS Country: US Constellation: starlink operational
LEOCIRCULAR

Live Position

Loading 3D Globe...

About Starlink 34049

Description loading...

Upcoming Passes

Passes for default location (London). Set your location on the main map for personalized predictions.

Altitude History

Loading altitude history...

Two-Line Element Set

1 64042U 25102W 26104.17812132 .00001738 00000-0 15344-3 0 9993
2 64042 70.0031 25.1517 0002671 269.9372 90.1481 14.98332723 51263
Epoch: Apr 14, 2026 • Age: 18 hours

Current Status

Altitude 577.1 km
Velocity 7.58 km/s
Sub-Earth Point 33.83°N, 136.67°W
Launch Date May 16, 2025
Age 0.9 years
Type internet

Technical Details

Classification Payload
Mass 575.00 kg
Dry Mass 530.00 kg
Total Mass 575.00 kg
Length 0.30 m
Diameter 4.10 m
Span 29.00 m
Shape Box + pan
Manufacturer SPXS
Bus Type Starlink V2MO
Phase Status In Orbit
Owner/State SPXS/US

Most Searched